• în Republica Moldova
  • Lista ţărilor
  • Pe 7 zile
  • Temperatura apei
  • Hartă satelitară
  • Meteo pe hartă
  • Widget-uri
  • user-avatar
    Intrare

    Meteo pe oră la Baku

    Astăzi, 28 Iunie, Miercuri

    Timp Temperatura Precipitaţii Vânt Presiune Umiditate
    00:00 +26°C° 0 mm 3 m/s 757 mmHg 65%
    01:00 +26°C° 0 mm 3 m/s 757 mmHg 66%
    02:00 +26°C° 0 mm 3 m/s 757 mmHg 67%
    03:00 +26°C° 0 mm 3 m/s 757 mmHg 68%
    04:00 +26°C° 0 mm 3 m/s 757 mmHg 66%
    05:00 +27°C° 0 mm 3 m/s 757 mmHg 64%
    06:00 +27°C° 0 mm 3 m/s 757 mmHg 62%
    07:00 +28°C° 0 mm 4 m/s 757 mmHg 56%
    08:00 +30°C° 0 mm 4 m/s 757 mmHg 49%
    09:00 +32°C° 0 mm 4 m/s 757 mmHg 43%
    10:00 +33°C° 0 mm 5 m/s 757 mmHg 40%
    11:00 +34°C° 0 mm 5 m/s 757 mmHg 37%
    12:00 +35°C° 0 mm 5 m/s 757 mmHg 34%
    13:00 +35°C° 0 mm 5 m/s 756 mmHg 33%
    14:00 +35°C° 0 mm 5 m/s 756 mmHg 32%
    15:00 +35°C° 0 mm 5 m/s 756 mmHg 31%
    16:00 +34°C° 0 mm 5 m/s 756 mmHg 31%
    17:00 +34°C° 0 mm 4 m/s 755 mmHg 31%
    18:00 +33°C° 0 mm 3 m/s 755 mmHg 31%
    19:00 +31°C° 0 mm 3 m/s 755 mmHg 33%
    20:00 +31°C° 0 mm 3 m/s 755 mmHg 35%
    21:00 +30°C° 0 mm 2 m/s 755 mmHg 37%
    22:00 +29°C° 0 mm 3 m/s 755 mmHg 36%
    23:00 +29°C° 0 mm 3 m/s 755 mmHg 36%

    Mâine, 29 Iunie, Joi

    Timp Temperatura Precipitaţii Vânt Presiune Umiditate
    00:00 +29°C° 0 mm 3 m/s 755 mmHg 36%
    01:00 +29°C° 0 mm 4 m/s 755 mmHg 38%
    02:00 +28°C° 0 mm 4 m/s 755 mmHg 39%
    03:00 +28°C° 0 mm 4 m/s 755 mmHg 41%
    04:00 +28°C° 0 mm 4 m/s 755 mmHg 41%
    05:00 +29°C° 0 mm 4 m/s 755 mmHg 41%
    06:00 +29°C° 0 mm 4 m/s 755 mmHg 41%
    07:00 +30°C° 0,1 mm 4 m/s 755 mmHg 38%
    08:00 +32°C° 0,1 mm 5 m/s 755 mmHg 34%
    09:00 +33°C° 0,1 mm 5 m/s 755 mmHg 31%
    10:00 +34°C° 0 mm 5 m/s 755 mmHg 30%
    11:00 +35°C° 0 mm 5 m/s 755 mmHg 28%
    12:00 +35°C° 0 mm 5 m/s 755 mmHg 26%
    13:00 +35°C° 0 mm 5 m/s 755 mmHg 25%
    14:00 +35°C° 0 mm 6 m/s 754 mmHg 25%
    15:00 +35°C° 0 mm 6 m/s 754 mmHg 24%
    16:00 +34°C° 0 mm 6 m/s 754 mmHg 26%
    17:00 +34°C° 0 mm 6 m/s 754 mmHg 28%
    18:00 +33°C° 0 mm 7 m/s 754 mmHg 29%
    19:00 +32°C° 0 mm 7 m/s 754 mmHg 32%
    20:00 +30°C° 0 mm 7 m/s 754 mmHg 35%
    21:00 +29°C° 0 mm 7 m/s 754 mmHg 38%
    22:00 +29°C° 0 mm 8 m/s 754 mmHg 39%
    23:00 +29°C° 0 mm 9 m/s 754 mmHg 39%

    Poimâine, 30 Iunie, Vineri

    Timp Temperatura Precipitaţii Vânt Presiune Umiditate
    00:00 +28°C° 0 mm 10 m/s 754 mmHg 40%
    01:00 +28°C° 0 mm 10 m/s 754 mmHg 41%
    02:00 +28°C° 0 mm 10 m/s 754 mmHg 43%
    03:00 +28°C° 0 mm 10 m/s 754 mmHg 44%
    04:00 +28°C° 0 mm 10 m/s 754 mmHg 44%
    05:00 +29°C° 0 mm 11 m/s 754 mmHg 44%
    06:00 +29°C° 0 mm 11 m/s 754 mmHg 43%
    07:00 +31°C° 0 mm 11 m/s 754 mmHg 41%
    08:00 +32°C° 0 mm 12 m/s 755 mmHg 39%
    09:00 +33°C° 0 mm 12 m/s 755 mmHg 37%
    10:00 +33°C° 0 mm 12 m/s 755 mmHg 38%
    11:00 +33°C° 0 mm 12 m/s 755 mmHg 38%
    12:00 +33°C° 0 mm 12 m/s 755 mmHg 39%
    13:00 +33°C° 0 mm 12 m/s 755 mmHg 41%
    14:00 +33°C° 0 mm 12 m/s 755 mmHg 43%
    15:00 +32°C° 0 mm 12 m/s 754 mmHg 44%
    16:00 +32°C° 0 mm 12 m/s 754 mmHg 45%
    17:00 +31°C° 0 mm 12 m/s 755 mmHg 46%
    18:00 +31°C° 0 mm 11 m/s 755 mmHg 46%
    19:00 +31°C° 0 mm 11 m/s 755 mmHg 46%
    20:00 +29°C° 0 mm 12 m/s 755 mmHg 46%
    21:00 +29°C° 0 mm 12 m/s 756 mmHg 46%
    22:00 +29°C° 0 mm 12 m/s 756 mmHg 45%
    23:00 +29°C° 0 mm 12 m/s 756 mmHg 43%

    1 Iulie, Sâmbătă

    Timp Temperatura Precipitaţii Vânt Presiune Umiditate
    00:00 +29°C° 0 mm 12 m/s 756 mmHg 42%
    01:00 +29°C° 0 mm 12 m/s 756 mmHg 42%
    02:00 +29°C° 0 mm 13 m/s 756 mmHg 42%
    03:00 +28°C° 0 mm 13 m/s 756 mmHg 42%
    04:00 +29°C° 0 mm 12 m/s 756 mmHg 42%
    05:00 +29°C° 0 mm 12 m/s 756 mmHg 41%
    06:00 +29°C° 0 mm 12 m/s 757 mmHg 40%
    07:00 +31°C° 0 mm 12 m/s 757 mmHg 40%
    08:00 +32°C° 0 mm 12 m/s 757 mmHg 39%
    09:00 +32°C° 0 mm 12 m/s 757 mmHg 38%
    10:00 +33°C° 0 mm 11 m/s 757 mmHg 38%
    11:00 +33°C° 0 mm 10 m/s 758 mmHg 38%
    12:00 +34°C° 0 mm 10 m/s 758 mmHg 38%
    13:00 +34°C° 0 mm 9 m/s 757 mmHg 38%
    14:00 +34°C° 0 mm 9 m/s 757 mmHg 39%
    15:00 +34°C° 0 mm 8 m/s 757 mmHg 39%
    16:00 +33°C° 0 mm 8 m/s 757 mmHg 39%
    17:00 +33°C° 0 mm 8 m/s 757 mmHg 40%
    18:00 +32°C° 0 mm 7 m/s 757 mmHg 40%
    19:00 +32°C° 0 mm 7 m/s 757 mmHg 42%
    20:00 +30°C° 0 mm 7 m/s 758 mmHg 43%
    21:00 +29°C° 0 mm 7 m/s 758 mmHg 45%
    22:00 +29°C° 0 mm 6 m/s 758 mmHg 45%
    23:00 +29°C° 0 mm 6 m/s 758 mmHg 45%

    2 Iulie, Duminică

    Timp Temperatura Precipitaţii Vânt Presiune Umiditate
    00:00 +29°C° 0 mm 6 m/s 757 mmHg 45%
    01:00 +29°C° 0 mm 6 m/s 757 mmHg 46%
    02:00 +28°C° 0 mm 6 m/s 757 mmHg 46%
    03:00 +28°C° 0 mm 5 m/s 757 mmHg 47%
    04:00 +28°C° 0 mm 5 m/s 757 mmHg 46%
    05:00 +29°C° 0 mm 5 m/s 757 mmHg 45%
    06:00 +29°C° 0 mm 5 m/s 758 mmHg 44%
    07:00 +32°C° 0 mm 4 m/s 758 mmHg 41%
    08:00 +33°C° 0 mm 4 m/s 758 mmHg 37%
    09:00 +35°C° 0 mm 3 m/s 758 mmHg 33%
    10:00 +36°C° 0 mm 3 m/s 757 mmHg 30%
    11:00 +37°C° 0 mm 3 m/s 757 mmHg 28%
    12:00 +38°C° 0 mm 3 m/s 757 mmHg 25%
    13:00 +38°C° 0 mm 4 m/s 757 mmHg 24%
    14:00 +38°C° 0 mm 4 m/s 756 mmHg 23%
    15:00 +38°C° 0 mm 4 m/s 756 mmHg 22%
    16:00 +37°C° 0 mm 4 m/s 756 mmHg 24%
    17:00 +37°C° 0 mm 4 m/s 756 mmHg 25%
    18:00 +36°C° 0 mm 3 m/s 755 mmHg 27%
    19:00 +35°C° 0 mm 3 m/s 756 mmHg 30%
    20:00 +34°C° 0 mm 2 m/s 756 mmHg 33%
    21:00 +31°C° 0 mm 2 m/s 756 mmHg 36%
    22:00 +31°C° 0 mm 2 m/s 755 mmHg 38%
    23:00 +30°C° 0 mm 2 m/s 755 mmHg 39%

    3 Iulie, Luni

    Timp Temperatura Precipitaţii Vânt Presiune Umiditate
    00:00 +30°C° 0 mm 2 m/s 755 mmHg 40%
    01:00 +30°C° 0 mm 2 m/s 755 mmHg 42%
    02:00 +29°C° 0 mm 2 m/s 755 mmHg 43%
    03:00 +29°C° 0 mm 2 m/s 754 mmHg 45%
    04:00 +29°C° 0 mm 2 m/s 755 mmHg 44%
    05:00 +30°C° 0 mm 2 m/s 755 mmHg 43%
    06:00 +31°C° 0 mm 2 m/s 755 mmHg 42%
    07:00 +33°C° 0 mm 3 m/s 755 mmHg 38%
    08:00 +35°C° 0 mm 4 m/s 755 mmHg 33%
    09:00 +36°C° 0 mm 4 m/s 755 mmHg 29%
    10:00 +37°C° 0 mm 5 m/s 754 mmHg 27%
    11:00 +37°C° 0 mm 5 m/s 754 mmHg 26%
    12:00 +39°C° 0 mm 5 m/s 753 mmHg 25%
    13:00 +39°C° 0 mm 5 m/s 753 mmHg 25%
    14:00 +39°C° 0 mm 5 m/s 753 mmHg 26%
    15:00 +39°C° 0 mm 6 m/s 752 mmHg 26%
    16:00 +37°C° 0 mm 5 m/s 752 mmHg 28%
    17:00 +36°C° 0 mm 5 m/s 752 mmHg 29%
    18:00 +35°C° 0 mm 4 m/s 752 mmHg 31%
    19:00 +34°C° 0 mm 4 m/s 752 mmHg 34%
    20:00 +33°C° 0 mm 3 m/s 752 mmHg 37%
    21:00 +31°C° 0 mm 2 m/s 752 mmHg 40%
    22:00 +31°C° 0 mm 2 m/s 752 mmHg 40%
    23:00 +31°C° 0 mm 2 m/s 752 mmHg 40%
    Arată mai mult